[[{"header":{"parameterUnit":"m.s-1","parameterCategory":2,"la1":30.2991,"la2":30.254,"lo1":-89.0895,"lo2":-89.0444,"dy":0.0017,"dx":0.0017,"nx":28,"ny":28,"refTime":"2023-10-01T09:00:00:Z","depth":"0","parameterNumber":2,"parameterNumberName":"U-component_of_CURRENTS"},"data":[0,0,0,0,0,0,0,0,0,0,0,0,0,0,0,0,0,0,0,0,0,0,0,0,0,0,0,0,0,0,0,0,0,0,0,0,0,0,0,0,0,0,0,0,0,0,0,0,0,0,0,0,0,0,0,0,0,0,0.2335,0.2335,0,0.2324,0.2324,0.2324,0.231,0.231,0.231,0.231,0.2272,0.2271,0.227,0,0,0,0,0,0,0,0,0,0,0,0,0,0.2343,0.2343,0.2335,0.2335,0.2335,0.2325,0.2324,0.2324,0.231,0.231,0.231,0.231,0.2272,0.2271,0.227,0,0,0,0,0,0,0,0,0,0,0,0,0,0.2335,0.2343,0.2335,0.2329,0.2328,0.2325,0.2324,0.2324,0.231,0.231,0.231,0.231,0.2273,0.2271,0.227,0.2261,0,0,0.2265,0.2265,0,0,0,0,0,0,0,0,0.2335,0.2334,0.233,0.2329,0.2329,0.2321,0.2313,0.2302,0.231,0.2314,0.231,0.231,0.2287,0.2285,0.228,0.2259,0.2258,0.2265,0.2264,0.2264,0.2263,0,0,0,0,0,0,0,0.2336,0.2334,0.2329,0.233,0.2329,0.2327,0.2325,0.2311,0.2299,0.2314,0.2314,0.2316,0.2286,0.2281,0.2279,0.2257,0.2265,0.2264,0.2263,0.2262,0.2273,0.2274,0,0,0,0,0,0,0.2342,0.2335,0.2329,0.2328,0.2334,0.2327,0.2325,0.2321,0.23,0.2297,0.2316,0.2316,0.2284,0.228,0.2277,0.23,0.2264,0.2262,0.2261,0.2272,0.2273,0.2275,0,0,0,0,0,0,0.2342,0.2341,0.2329,0.2334,0.2332,0.2327,0.2323,0.2321,0.2324,0.2302,0.2298,0.2322,0.2284,0.2279,0.2278,0.2297,0.2262,0.226,0.2271,0.2272,0.2274,0.2322,0,0,0,0,0,0,0.2342,0.2341,0.234,0.2334,0.2332,0.2337,0.2323,0.2321,0.2326,0.2325,0.2305,0.2301,0.2283,0.2281,0.2277,0.2294,0.2259,0.2269,0.2271,0.2273,0.2319,0.2325,0.2331,0,0,0,0,0,0.2342,0.234,0.2339,0.2339,0.2331,0.2337,0.2337,0.2331,0.2327,0.2332,0.2322,0.2302,0.2292,0.228,0.2276,0.2293,0.2268,0.2271,0.2273,0.2317,0.2324,0.2331,0,0,0,0,0,0,0.2339,0.2338,0.2338,0.2334,0.2342,0.2336,0.2339,0.2338,0.2333,0.2332,0.2311,0.2306,0.2315,0.2299,0.2286,0.2305,0.228,0.2281,0.2314,0.2321,0.2327,0.2341,0.2258,0,0,0,0,0,0.2339,0.2338,0.2342,0.234,0.2346,0.2345,0.2347,0.2347,0.2344,0.2342,0.2329,0.232,0.2321,0.2317,0.2311,0.2314,0.2331,0.2326,0.2331,0.2336,0.2346,0.2391,0.2402,0.2283,0.2283,0.2283,0,0,0.2334,0.2337,0.2334,0.234,0.2343,0.2354,0.2346,0.2355,0.2363,0.2338,0.2342,0.2339,0.2328,0.2337,0.234,0.2325,0.2383,0.234,0.2344,0.2351,0.2395,0.2406,0.2416,0.2285,0.2285,0.2284,0,0,0.233,0.2332,0.2333,0.2345,0.2358,0.2362,0.237,0.2373,0.2377,0.2383,0.2375,0.2387,0.2372,0.2377,0.2377,0.2412,0.2414,0.241,0.2445,0.2489,0.2499,0.2508,0.2561,0.2574,0.241,0.241,0.241,0,0.2327,0.2329,0.2336,0.2348,0.2359,0.237,0.2382,0.2389,0.2391,0.2401,0.2391,0.2405,0.2395,0.2421,0.2437,0.2425,0.2455,0.2417,0.2497,0.2506,0.2515,0.2566,0.258,0.2412,0.2412,0.2412,0.2412,0,0.2327,0.2334,0.234,0.2357,0.2373,0.2386,0.2405,0.2418,0.2425,0.2433,0.2461,0.2458,0.2468,0.2472,0.2464,0.252,0.2525,0.2502,0.2479,0.253,0.2581,0.2595,0.2416,0.2415,0.2414,0.2414,0,0,0.2297,0.2332,0.2333,0.2346,0.2381,0.2389,0.242,0.2448,0.2474,0.2482,0.2519,0.2528,0.2536,0.2538,0.2536,0.2575,0.2665,0.257,0.2571,0.2623,0.278,0.2778,0.2793,0.2658,0.2661,0.2663,0.2797,0,0.2295,0.2317,0.2338,0.236,0.2375,0.2406,0.2435,0.2466,0.2495,0.2534,0.2553,0.2583,0.2559,0.2577,0.2612,0.2654,0.2702,0.2632,0.2722,0.2725,0.2718,0.2808,0.2741,0.2855,0.281,0.2813,0.2814,0,0.2282,0.2303,0.2324,0.2368,0.2378,0.2397,0.2453,0.2482,0.2549,0.2577,0.2618,0.2637,0.2697,0.2669,0.2766,0.2726,0.2762,0.2791,0.2796,0.2786,0.2749,0.2794,0.2882,0.2847,0.2835,0.2834,0.2832,0,0.2248,0.2287,0.2304,0.2318,0.2372,0.2392,0.2426,0.2492,0.2524,0.2614,0.2655,0.2717,0.276,0.2813,0.2867,0.2829,0.2987,0.2933,0.2967,0.2967,0.2924,0.2917,0.2987,0.3014,0.3013,0.3013,0.3013,0,0.2229,0.2237,0.2289,0.2296,0.2321,0.2376,0.2419,0.2466,0.255,0.2598,0.2673,0.2731,0.2801,0.2885,0.2919,0.3005,0.3028,0.3006,0.3012,0.294,0.2933,0.2908,0.2873,0.3018,0.3017,0.3016,0.3015,0,0.2176,0.2211,0.2228,0.2285,0.2301,0.2319,0.2393,0.2431,0.2526,0.26,0.2632,0.2763,0.289,0.2966,0.308,0.3074,0.3086,0.3171,0.3092,0.3086,0.3049,0.3018,0.2972,0.2864,0.3227,0.3228,0.3229,0,0.2146,0.2152,0.2199,0.221,0.2231,0.2273,0.2304,0.2398,0.2447,0.2611,0.2645,0.2806,0.2908,0.3099,0.3156,0.3251,0.3141,0.3216,0.3117,0.3073,0.3043,0.2898,0.2797,0.3089,0.3088,0.3088,0.3088,0,0.2089,0.2108,0.2123,0.2151,0.2175,0.2202,0.2261,0.2291,0.2415,0.2507,0.2651,0.2756,0.2968,0.3062,0.3197,0.3227,0.3081,0.321,0.3184,0.2973,0.2799,0.2688,0.2982,0.3085,0.3085,0.3085,0.3085,0.3085,0.2038,0.2036,0.2065,0.2077,0.2104,0.2123,0.2125,0.2213,0.2289,0.2407,0.2572,0.2722,0.2933,0.3128,0.3139,0.3159,0.3073,0.3091,0.3073,0.294,0.2784,0.3082,0.3169,0.317,0.317,0.3171,0.3171,0,0.1966,0.1977,0.1994,0.2003,0.1996,0.2043,0.2084,0.2085,0.2147,0.2329,0.2458,0.2714,0.285,0.2997,0.3137,0.306,0.2863,0.2984,0.2769,0.2682,0.2996,0.2939,0.2954,0.2954,0.2954,0.2954,0.2954,0.2954,0.1929,0.1913,0.1922,0.1885,0.1896,0.1858,0.1861,0.1893,0.2002,0.2169,0.2341,0.2508,0.2848,0.3127,0.3143,0.3044,0.2769,0.2672,0.2605,0.2866,0.2874,0.288,0.282,0.2811,0.281,0.2179,0.2175,0.2172]},{"header":{"parameterUnit":"m.s-1","parameterCategory":2,"la1":30.2991,"la2":30.254,"lo1":-89.0895,"lo2":-89.0444,"dy":0.0017,"dx":0.0017,"nx":28,"ny":28,"refTime":"2023-10-01T09:00:00:Z","depth":"0","parameterNumber":3,"parameterNumberName":"V-component_of_CURRENTS"},"data":[0,0,0,0,0,0,0,0,0,0,0,0,0,0,0,0,0,0,0,0,0,0,0,0,0,0,0,0,0,0,0,0,0,0,0,0,0,0,0,0,0,0,0,0,0,0,0,0,0,0,0,0,0,0,0,0,0,0,-0.0292,-0.0292,0,-0.0352,-0.0353,-0.0354,-0.0386,-0.0386,-0.0386,-0.0386,-0.0453,-0.0455,-0.0457,0,0,0,0,0,0,0,0,0,0,0,0,0,-0.0256,-0.0256,-0.0291,-0.0292,-0.0293,-0.0352,-0.0353,-0.0354,-0.0386,-0.0386,-0.0386,-0.0386,-0.0452,-0.0455,-0.0457,0,0,0,0,0,0,0,0,0,0,0,0,0,-0.029,-0.0256,-0.0291,-0.0316,-0.0318,-0.0352,-0.0353,-0.0354,-0.0386,-0.0386,-0.0386,-0.0386,-0.0452,-0.0454,-0.0457,-0.0473,0,0,-0.0465,-0.0466,0,0,0,0,0,0,0,0,-0.0288,-0.0292,-0.0311,-0.0314,-0.0317,-0.0361,-0.0365,-0.0394,-0.0386,-0.0361,-0.0386,-0.0386,-0.0422,-0.0427,-0.044,-0.0476,-0.0479,-0.0465,-0.0467,-0.0468,-0.0469,0,0,0,0,0,0,0,-0.0286,-0.0289,-0.0316,-0.0312,-0.0316,-0.0341,-0.0346,-0.0371,-0.0392,-0.0364,-0.0366,-0.0371,-0.0424,-0.0437,-0.0442,-0.048,-0.0465,-0.0468,-0.0469,-0.047,-0.0522,-0.0521,0,0,0,0,0,0,-0.0274,-0.0287,-0.0314,-0.0318,-0.0302,-0.0342,-0.0347,-0.0348,-0.0392,-0.0398,-0.0371,-0.0373,-0.0433,-0.0439,-0.0444,-0.0453,-0.0468,-0.0471,-0.0472,-0.0522,-0.0522,-0.0521,0,0,0,0,0,0,-0.0273,-0.0276,-0.0312,-0.0304,-0.031,-0.0342,-0.0343,-0.0349,-0.0359,-0.0397,-0.0404,-0.0375,-0.0433,-0.044,-0.0464,-0.0456,-0.0472,-0.0474,-0.0522,-0.0522,-0.0521,-0.0479,0,0,0,0,0,0,-0.0271,-0.0275,-0.0271,-0.0303,-0.031,-0.0325,-0.0343,-0.035,-0.0362,-0.0365,-0.0403,-0.0409,-0.0433,-0.046,-0.0467,-0.046,-0.0476,-0.0522,-0.0522,-0.0522,-0.048,-0.0477,-0.0474,0,0,0,0,0,-0.027,-0.0262,-0.027,-0.0274,-0.0304,-0.0324,-0.033,-0.0354,-0.0362,-0.0364,-0.0392,-0.0408,-0.0462,-0.0462,-0.047,-0.0464,-0.0523,-0.0522,-0.0522,-0.0482,-0.0478,-0.0474,0,0,0,0,0,0,-0.0245,-0.0265,-0.0275,-0.0274,-0.0295,-0.0329,-0.0332,-0.035,-0.0374,-0.0374,-0.041,-0.0419,-0.0436,-0.0456,-0.0455,-0.0477,-0.0493,-0.0494,-0.046,-0.0456,-0.0453,-0.0435,-0.0478,0,0,0,0,0,-0.0237,-0.0235,-0.0263,-0.0261,-0.0269,-0.03,-0.0311,-0.0327,-0.0352,-0.0363,-0.0389,-0.0416,-0.0441,-0.0453,-0.0478,-0.0491,-0.0516,-0.0491,-0.0488,-0.0485,-0.0476,-0.052,-0.052,-0.052,-0.052,-0.052,0,0,-0.0227,-0.0238,-0.0238,-0.0256,-0.0273,-0.0277,-0.0306,-0.0317,-0.0321,-0.0366,-0.0377,-0.0408,-0.0443,-0.0459,-0.0468,-0.0474,-0.0496,-0.0484,-0.0482,-0.0474,-0.0519,-0.052,-0.052,-0.0519,-0.0519,-0.0519,0,0,-0.0204,-0.0215,-0.0205,-0.0219,-0.0239,-0.0258,-0.0258,-0.0288,-0.0301,-0.032,-0.0351,-0.0378,-0.0413,-0.0438,-0.0455,-0.0449,-0.048,-0.0453,-0.0421,-0.0464,-0.0465,-0.0465,-0.0488,-0.0491,-0.0449,-0.0449,-0.0449,0,-0.019,-0.0183,-0.0207,-0.0202,-0.0206,-0.0244,-0.0235,-0.0256,-0.029,-0.0297,-0.0314,-0.0369,-0.0403,-0.0423,-0.0422,-0.0442,-0.0464,-0.0433,-0.046,-0.0461,-0.0463,-0.0486,-0.049,-0.0447,-0.0447,-0.0447,-0.0447,0,-0.0162,-0.0157,-0.0152,-0.0155,-0.0164,-0.0163,-0.0191,-0.02,-0.0222,-0.0245,-0.0271,-0.0323,-0.0352,-0.0369,-0.0396,-0.0417,-0.0428,-0.0454,-0.0469,-0.046,-0.0485,-0.049,-0.0444,-0.0444,-0.0445,-0.0445,0,0,-0.0122,-0.0129,-0.0126,-0.0117,-0.0137,-0.0137,-0.0142,-0.0155,-0.015,-0.0195,-0.0196,-0.0254,-0.0284,-0.0305,-0.0345,-0.0382,-0.0417,-0.0415,-0.0419,-0.0434,-0.0497,-0.048,-0.0484,-0.045,-0.0451,-0.0452,-0.0507,0,-0.009,-0.0066,-0.008,-0.0056,-0.0045,-0.0074,-0.0074,-0.0092,-0.0114,-0.0126,-0.0186,-0.0206,-0.0259,-0.0271,-0.0319,-0.039,-0.0429,-0.0398,-0.0505,-0.0508,-0.0492,-0.0489,-0.0472,-0.0518,-0.0512,-0.0513,-0.0513,0,-0.0052,-0.0041,-0.0011,-0.0002,0.0001,0.0008,0.0012,0.001,-0.0023,-0.004,-0.0076,-0.0123,-0.0178,-0.0229,-0.0346,-0.0324,-0.0403,-0.0464,-0.0468,-0.0469,-0.0499,-0.0528,-0.0527,-0.069,-0.0521,-0.052,-0.052,0,-0.0003,0.0012,0.0042,0.0044,0.0044,0.0054,0.0054,0.0036,0.005,0.0018,0.0021,-0.0059,-0.0088,-0.0204,-0.0324,-0.0341,-0.0451,-0.0494,-0.0552,-0.0552,-0.0566,-0.0564,-0.0732,-0.0582,-0.0582,-0.0582,-0.0582,0,0.004,0.0065,0.0067,0.0084,0.0123,0.0104,0.0139,0.013,0.0128,0.0159,0.0072,0.0079,-0.0085,-0.0166,-0.0296,-0.0422,-0.0433,-0.0539,-0.0566,-0.0548,-0.0545,-0.0709,-0.0807,-0.0584,-0.0584,-0.0583,-0.0583,0,0.0088,0.0088,0.0126,0.0137,0.0148,0.0176,0.0204,0.023,0.0216,0.0257,0.0253,0.0183,0.0086,-0.0073,-0.0246,-0.0367,-0.0597,-0.0548,-0.0501,-0.052,-0.0727,-0.0821,-0.1019,-0.1098,-0.0627,-0.0627,-0.0627,0,0.0115,0.0139,0.0175,0.0203,0.0211,0.0246,0.0275,0.0278,0.0313,0.0332,0.0358,0.0287,0.0258,0.0018,-0.0206,-0.0417,-0.059,-0.0551,-0.0588,-0.073,-0.0856,-0.0941,-0.1,-0.0592,-0.0592,-0.0591,-0.0591,0,0.0165,0.0178,0.0208,0.0265,0.0305,0.0354,0.0394,0.0439,0.0459,0.0497,0.0543,0.053,0.0321,0.0128,-0.0158,-0.0324,-0.0674,-0.0551,-0.0728,-0.086,-0.0936,-0.1026,-0.0554,-0.0589,-0.0589,-0.0589,-0.0589,-0.0589,0.0206,0.0235,0.0275,0.0332,0.0383,0.0453,0.0498,0.0558,0.0638,0.0712,0.0693,0.0712,0.0423,0.0041,-0.0203,-0.0636,-0.0668,-0.0777,-0.0883,-0.0958,-0.1031,-0.0533,-0.0578,-0.0578,-0.0578,-0.0578,-0.0579,0,0.0254,0.0284,0.0338,0.0402,0.0463,0.0482,0.0573,0.0629,0.0735,0.0825,0.0874,0.0772,0.0398,0.0001,-0.0565,-0.0899,-0.1054,-0.1101,-0.1242,-0.1289,-0.0869,-0.0863,-0.0935,-0.0935,-0.0935,-0.0934,-0.0934,-0.0934,0.028,0.0334,0.0356,0.0456,0.0504,0.0587,0.0642,0.0743,0.0823,0.0937,0.0979,0.098,0.0711,-0.0326,-0.1101,-0.1292,-0.1546,-0.1597,-0.1741,-0.1475,-0.1454,-0.1433,-0.1451,-0.1645,-0.1646,-0.2115,-0.212,-0.2123]}],[{"header":{"parameterUnit":"m.s-1","parameterCategory":2,"la1":30.2991,"la2":30.254,"lo1":-89.0895,"lo2":-89.0444,"dy":0.0017,"dx":0.0017,"nx":28,"ny":28,"refTime":"2023-10-01T09:00:00:Z","depth":"2","parameterNumber":2,"parameterNumberName":"U-component_of_CURRENTS"},"data":[0,0,0,0,0,0,0,0,0,0,0,0,0,0,0,0,0,0,0,0,0,0,0,0,0,0,0,0,0,0,0,0,0,0,0,0,0,0,0,0,0,0,0,0,0,0,0,0,0,0,0,0,0,0,0,0,0,0,0.2326,0.2326,0,0.2321,0.232,0.232,0.2311,0.2311,0.2311,0.2311,0.2282,0.2281,0.228,0,0,0,0,0,0,0,0,0,0,0,0,0,0.2324,0.2324,0.2326,0.2326,0.2326,0.2321,0.232,0.232,0.2311,0.2311,0.2311,0.2311,0.2282,0.2281,0.228,0,0,0,0,0,0,0,0,0,0,0,0,0,0.2321,0.2324,0.2326,0.2322,0.2322,0.2321,0.232,0.232,0.2311,0.2311,0.2311,0.2311,0.2282,0.2281,0.228,0.2272,0,0,0.2276,0.2276,0,0,0,0,0,0,0,0,0.2321,0.232,0.2323,0.2323,0.2323,0.2318,0.2309,0.2303,0.2311,0.2313,0.2311,0.2311,0.2293,0.2291,0.2287,0.227,0.2269,0.2276,0.2275,0.2275,0.2275,0,0,0,0,0,0,0,0.2321,0.2321,0.2321,0.2323,0.2323,0.232,0.2319,0.2308,0.2301,0.2313,0.2313,0.2315,0.2293,0.2288,0.2286,0.2269,0.2276,0.2275,0.2274,0.2274,0.2291,0.2292,0,0,0,0,0,0,0.2326,0.2321,0.2322,0.2322,0.2324,0.232,0.2319,0.2318,0.2301,0.23,0.2315,0.2315,0.229,0.2288,0.2285,0.2312,0.2275,0.2274,0.2273,0.229,0.2291,0.2293,0,0,0,0,0,0,0.2326,0.2326,0.2322,0.2323,0.2323,0.2321,0.2319,0.2318,0.2323,0.2304,0.2302,0.2323,0.229,0.2287,0.229,0.2309,0.2273,0.2272,0.2289,0.229,0.2292,0.234,0,0,0,0,0,0,0.2326,0.2326,0.2328,0.2323,0.2323,0.2331,0.2319,0.2318,0.2325,0.2325,0.231,0.2307,0.229,0.2292,0.2289,0.2307,0.2271,0.2287,0.2289,0.2292,0.2337,0.2344,0.2349,0,0,0,0,0,0.2326,0.2327,0.2328,0.2328,0.2325,0.2332,0.2332,0.2328,0.2326,0.2332,0.2325,0.2308,0.2304,0.2292,0.2288,0.2306,0.2286,0.2289,0.2291,0.2335,0.2342,0.2349,0,0,0,0,0,0,0.2324,0.2326,0.2327,0.2327,0.2336,0.2331,0.2336,0.2336,0.2335,0.2336,0.2316,0.2313,0.2325,0.231,0.2297,0.232,0.2294,0.2296,0.2329,0.2336,0.2342,0.2354,0.227,0,0,0,0,0,0.2326,0.2328,0.2333,0.2335,0.2341,0.2341,0.2344,0.2346,0.2345,0.2344,0.2334,0.2329,0.2332,0.233,0.2325,0.2331,0.2349,0.2344,0.235,0.2355,0.2363,0.241,0.2422,0.2301,0.2301,0.2301,0,0,0.2324,0.2327,0.2326,0.2335,0.2339,0.235,0.2343,0.2354,0.2364,0.2341,0.2349,0.2347,0.2339,0.2351,0.2355,0.234,0.2401,0.2358,0.2362,0.2368,0.2414,0.2426,0.2437,0.2303,0.2303,0.2303,0,0,0.2323,0.2327,0.233,0.2342,0.2357,0.2361,0.2369,0.2374,0.238,0.2389,0.2382,0.2395,0.2386,0.2392,0.2392,0.2428,0.2432,0.2427,0.2463,0.2508,0.2519,0.2528,0.2578,0.2592,0.2428,0.2428,0.2428,0,0.2322,0.2326,0.2334,0.2346,0.2358,0.2369,0.2382,0.2391,0.2396,0.2407,0.2398,0.2416,0.2408,0.2435,0.2452,0.2441,0.2471,0.2434,0.2517,0.2526,0.2535,0.2584,0.2598,0.2431,0.2431,0.243,0.243,0,0.2324,0.2334,0.234,0.2359,0.2375,0.2389,0.2408,0.2423,0.2431,0.2441,0.2471,0.2469,0.2482,0.2486,0.2479,0.2537,0.2542,0.2521,0.2499,0.255,0.2599,0.2613,0.2435,0.2434,0.2433,0.2432,0,0,0.23,0.2335,0.2336,0.2349,0.2384,0.2393,0.2425,0.2454,0.248,0.2491,0.2529,0.254,0.2549,0.2552,0.2551,0.2592,0.2682,0.2589,0.259,0.264,0.28,0.2774,0.2786,0.2681,0.2683,0.2685,0.2814,0,0.2299,0.2322,0.2343,0.2366,0.2381,0.2412,0.2442,0.2473,0.2504,0.2543,0.2562,0.2594,0.2571,0.259,0.2628,0.2671,0.272,0.265,0.2742,0.2745,0.2717,0.2801,0.2566,0.2659,0.2827,0.283,0.2831,0,0.2288,0.2309,0.2332,0.2376,0.2386,0.2405,0.2462,0.2492,0.2557,0.2586,0.2627,0.2646,0.2708,0.2681,0.2783,0.2743,0.2781,0.281,0.2815,0.2782,0.2745,0.2633,0.2678,0.2854,0.2853,0.2851,0.2849,0,0.2257,0.2296,0.2314,0.2328,0.2382,0.2402,0.2437,0.2502,0.2535,0.2623,0.2664,0.2727,0.277,0.2826,0.2882,0.2846,0.3003,0.2953,0.2965,0.2964,0.2777,0.2755,0.3035,0.3035,0.3034,0.3034,0.3034,0,0.2239,0.2249,0.23,0.2308,0.2334,0.2388,0.2432,0.2479,0.2561,0.2609,0.2682,0.274,0.2812,0.2896,0.2931,0.3007,0.3043,0.3,0.3004,0.2788,0.2767,0.2935,0.2921,0.3039,0.3038,0.3037,0.3036,0,0.2189,0.2224,0.2242,0.23,0.2315,0.2335,0.2408,0.2446,0.254,0.2613,0.2645,0.2772,0.2891,0.2966,0.308,0.3071,0.3143,0.3156,0.2907,0.288,0.3059,0.3047,0.3182,0.3183,0.3183,0.3183,0.3183,0,0.2161,0.2169,0.2216,0.2227,0.2248,0.2291,0.2322,0.2415,0.2464,0.2624,0.2657,0.2807,0.2894,0.307,0.31,0.3178,0.3197,0.2988,0.2866,0.3088,0.3079,0.3066,0.3054,0.2643,0.2638,0.2635,0.2632,0,0.2108,0.2127,0.2142,0.2171,0.2195,0.2222,0.2281,0.231,0.2432,0.2518,0.2651,0.2742,0.2913,0.2897,0.3002,0.3002,0.2954,0.2921,0.3231,0.2644,0.259,0.2577,0.2581,0.2601,0.2604,0.2607,0.2608,0.261,0.2059,0.2058,0.2087,0.21,0.2127,0.2145,0.2148,0.2224,0.2292,0.2377,0.2541,0.2603,0.2681,0.2727,0.2697,0.2674,0.2866,0.2721,0.2727,0.2738,0.2654,0.2605,0.2603,0.2606,0.2609,0.2611,0.2613,0,0.1988,0.2001,0.2018,0.2028,0.2018,0.2068,0.2107,0.2091,0.2133,0.2242,0.2335,0.2228,0.225,0.232,0.2257,0.2302,0.2226,0.2195,0.2057,0.2093,0.2123,0.2001,0.1781,0.1778,0.1775,0.1772,0,0,0.1952,0.1935,0.1944,0.1906,0.1919,0.1877,0.1879,0.188,0.1928,0.1936,0.1954,0.2122,0.2257,0.1969,0.1973,0.1859,0.1943,0.1789,0.2467,0.2341,0.2366,0.2456,0.2315,0,0,0,0,0]},{"header":{"parameterUnit":"m.s-1","parameterCategory":2,"la1":30.2991,"la2":30.254,"lo1":-89.0895,"lo2":-89.0444,"dy":0.0017,"dx":0.0017,"nx":28,"ny":28,"refTime":"2023-10-01T09:00:00:Z","depth":"2","parameterNumber":3,"parameterNumberName":"V-component_of_CURRENTS"},"data":[0,0,0,0,0,0,0,0,0,0,0,0,0,0,0,0,0,0,0,0,0,0,0,0,0,0,0,0,0,0,0,0,0,0,0,0,0,0,0,0,0,0,0,0,0,0,0,0,0,0,0,0,0,0,0,0,0,0,-0.0194,-0.0195,0,-0.0256,-0.0257,-0.0257,-0.0293,-0.0293,-0.0293,-0.0293,-0.0361,-0.0363,-0.0365,0,0,0,0,0,0,0,0,0,0,0,0,0,-0.0146,-0.0146,-0.0194,-0.0195,-0.0195,-0.0256,-0.0257,-0.0258,-0.0293,-0.0293,-0.0293,-0.0293,-0.0361,-0.0363,-0.0365,0,0,0,0,0,0,0,0,0,0,0,0,0,-0.0184,-0.0147,-0.0194,-0.022,-0.0223,-0.0256,-0.0257,-0.0258,-0.0293,-0.0293,-0.0293,-0.0293,-0.036,-0.0362,-0.0365,-0.0378,0,0,-0.0373,-0.0374,0,0,0,0,0,0,0,0,-0.0181,-0.0185,-0.0215,-0.0218,-0.0222,-0.0267,-0.0265,-0.0298,-0.0293,-0.0267,-0.0293,-0.0294,-0.033,-0.0335,-0.0347,-0.0381,-0.0384,-0.0373,-0.0375,-0.0376,-0.0376,0,0,0,0,0,0,0,-0.0179,-0.0183,-0.0219,-0.0216,-0.022,-0.0242,-0.0248,-0.0271,-0.0297,-0.0269,-0.0272,-0.0278,-0.0332,-0.0344,-0.0348,-0.0385,-0.0373,-0.0375,-0.0377,-0.0378,-0.0428,-0.0427,0,0,0,0,0,0,-0.0168,-0.018,-0.0217,-0.0221,-0.0201,-0.0243,-0.0249,-0.0252,-0.0297,-0.0304,-0.0278,-0.0279,-0.034,-0.0345,-0.0351,-0.0361,-0.0376,-0.0378,-0.038,-0.0428,-0.0428,-0.0427,0,0,0,0,0,0,-0.0167,-0.017,-0.0214,-0.0202,-0.0209,-0.0243,-0.0247,-0.0253,-0.0266,-0.0303,-0.031,-0.0284,-0.034,-0.0347,-0.0372,-0.0364,-0.0379,-0.0382,-0.0428,-0.0428,-0.0427,-0.0387,0,0,0,0,0,0,-0.0165,-0.017,-0.0169,-0.0201,-0.0209,-0.0228,-0.0247,-0.0255,-0.0269,-0.0272,-0.0311,-0.0317,-0.0341,-0.0367,-0.0374,-0.0368,-0.0384,-0.0428,-0.0428,-0.0428,-0.0388,-0.0385,-0.0382,0,0,0,0,0,-0.0163,-0.0158,-0.0169,-0.0173,-0.0207,-0.0228,-0.0234,-0.026,-0.0269,-0.0272,-0.03,-0.0316,-0.0369,-0.037,-0.0377,-0.0372,-0.0429,-0.0428,-0.0428,-0.039,-0.0386,-0.0382,0,0,0,0,0,0,-0.0138,-0.0163,-0.0174,-0.0178,-0.0199,-0.0234,-0.0239,-0.0257,-0.0281,-0.0283,-0.0318,-0.0327,-0.0345,-0.0364,-0.0363,-0.0385,-0.04,-0.0401,-0.0368,-0.0365,-0.0362,-0.0344,-0.0386,0,0,0,0,0,-0.0132,-0.0134,-0.0163,-0.0166,-0.0174,-0.0206,-0.0218,-0.0234,-0.026,-0.0271,-0.0298,-0.0325,-0.0349,-0.0361,-0.0386,-0.0398,-0.0422,-0.0398,-0.0395,-0.0393,-0.0384,-0.0425,-0.0425,-0.0426,-0.0426,-0.0426,0,0,-0.0123,-0.0136,-0.0139,-0.0161,-0.0179,-0.0183,-0.0213,-0.0226,-0.023,-0.0275,-0.0287,-0.0318,-0.0351,-0.0367,-0.0376,-0.0381,-0.0403,-0.0392,-0.0389,-0.0382,-0.0424,-0.0424,-0.0424,-0.0425,-0.0425,-0.0425,0,0,-0.0103,-0.0118,-0.0112,-0.0126,-0.0148,-0.0166,-0.0167,-0.0199,-0.0213,-0.0232,-0.0263,-0.029,-0.0325,-0.0347,-0.0363,-0.0358,-0.0388,-0.0363,-0.0331,-0.0372,-0.0372,-0.0372,-0.0395,-0.0398,-0.0358,-0.0358,-0.0358,0,-0.009,-0.0088,-0.0114,-0.0111,-0.0116,-0.0154,-0.0146,-0.0167,-0.0202,-0.0209,-0.0228,-0.0281,-0.0314,-0.0332,-0.0331,-0.035,-0.0373,-0.0343,-0.0368,-0.0369,-0.037,-0.0393,-0.0397,-0.0356,-0.0356,-0.0356,-0.0356,0,-0.0067,-0.0065,-0.0062,-0.0068,-0.0077,-0.0078,-0.0105,-0.0116,-0.0138,-0.0161,-0.0186,-0.0236,-0.0265,-0.0281,-0.0307,-0.0325,-0.0338,-0.0362,-0.0376,-0.0367,-0.0392,-0.0397,-0.0353,-0.0354,-0.0354,-0.0355,0,0,-0.0033,-0.0042,-0.004,-0.0032,-0.0053,-0.0053,-0.0058,-0.0071,-0.0067,-0.0112,-0.0113,-0.0169,-0.0198,-0.0218,-0.0256,-0.0291,-0.0324,-0.0324,-0.0328,-0.0344,-0.0402,-0.0386,-0.039,-0.0357,-0.0357,-0.0358,-0.0413,0,-0.0005,0.0015,0.0001,0.0024,0.0033,0.0006,0.0006,-0.0011,-0.0032,-0.0044,-0.0101,-0.012,-0.0173,-0.0185,-0.023,-0.0299,-0.0336,-0.0306,-0.041,-0.0412,-0.0398,-0.0394,-0.036,-0.0405,-0.0418,-0.0419,-0.0419,0,0.0028,0.0037,0.0065,0.0075,0.0078,0.0083,0.0089,0.0086,0.0056,0.0039,0.0005,-0.0041,-0.0093,-0.0143,-0.0255,-0.0234,-0.0312,-0.037,-0.0375,-0.0376,-0.0405,-0.0417,-0.0413,-0.0427,-0.0427,-0.0426,-0.0425,0,0.0072,0.0086,0.0114,0.0116,0.0117,0.0127,0.0127,0.0111,0.0125,0.0095,0.0098,0.0022,-0.0006,-0.0118,-0.0236,-0.0251,-0.0357,-0.0398,-0.0455,-0.0455,-0.0453,-0.045,-0.0482,-0.0482,-0.0482,-0.0482,-0.0482,0,0.0111,0.0134,0.0137,0.0152,0.019,0.0173,0.0207,0.0199,0.0199,0.0231,0.0146,0.0153,-0.0003,-0.0081,-0.0208,-0.0331,-0.034,-0.0443,-0.0469,-0.0436,-0.0431,-0.0474,-0.0473,-0.0484,-0.0484,-0.0483,-0.0483,0,0.0155,0.0155,0.0191,0.0202,0.0213,0.024,0.0268,0.0295,0.0282,0.0323,0.0319,0.0253,0.0158,0.0005,-0.0161,-0.0277,-0.0408,-0.0453,-0.039,-0.0407,-0.0489,-0.0485,-0.053,-0.053,-0.053,-0.053,-0.053,0,0.0179,0.0201,0.0236,0.0263,0.0271,0.0305,0.0334,0.034,0.0374,0.0394,0.0422,0.0351,0.0322,0.0091,-0.0123,-0.0328,-0.0376,-0.0439,-0.047,-0.0474,-0.0495,-0.0491,-0.0486,-0.0454,-0.0453,-0.0452,-0.0452,0,0.0225,0.0236,0.0265,0.0321,0.036,0.0409,0.0449,0.0494,0.0517,0.0553,0.0598,0.0583,0.0382,0.0195,-0.0082,-0.0228,-0.0405,-0.0434,-0.0463,-0.0438,-0.0404,-0.0423,-0.0422,-0.0447,-0.0447,-0.0448,-0.0448,-0.0448,0.0262,0.029,0.0328,0.0383,0.0434,0.0504,0.0549,0.0608,0.0686,0.075,0.0733,0.0719,0.0508,0.0168,-0.0078,-0.035,-0.0354,-0.0458,-0.046,-0.0461,-0.0434,-0.0401,-0.0438,-0.0438,-0.0438,-0.0439,-0.0439,0,0.0307,0.0334,0.0387,0.045,0.0512,0.053,0.0622,0.0677,0.0779,0.0836,0.0874,0.0706,0.0499,0.024,-0.0148,-0.0379,-0.0413,-0.0457,-0.0449,-0.0451,-0.0453,-0.0426,-0.0428,-0.0429,-0.0429,-0.043,0,0,0.0331,0.0384,0.0406,0.0504,0.055,0.0635,0.0691,0.0787,0.0843,0.0915,0.0914,0.0886,0.0585,0.0315,0.0005,-0.0218,-0.0293,-0.0267,-0.0249,-0.0206,-0.0207,-0.0424,-0.0379,0,0,0,0,0]}],[{"header":{"parameterUnit":"m.s-1","parameterCategory":2,"la1":30.2991,"la2":30.254,"lo1":-89.0895,"lo2":-89.0444,"dy":0.0017,"dx":0.0017,"nx":28,"ny":28,"refTime":"2023-10-01T09:00:00:Z","depth":"4","parameterNumber":2,"parameterNumberName":"U-component_of_CURRENTS"},"data":[0,0,0,0,0,0,0,0,0,0,0,0,0,0,0,0,0,0,0,0,0,0,0,0,0,0,0,0,0,0,0,0,0,0,0,0,0,0,0,0,0,0,0,0,0,0,0,0,0,0,0,0,0,0,0,0,0,0,0.1558,0.1559,0,0.1617,0.1617,0.1618,0.1672,0.1673,0.1673,0.1674,0.1735,0.1736,0.1737,0,0,0,0,0,0,0,0,0,0,0,0,0,0.1459,0.1461,0.1558,0.1559,0.156,0.1617,0.1617,0.1618,0.1672,0.1673,0.1674,0.1675,0.1735,0.1736,0.1737,0,0,0,0,0,0,0,0,0,0,0,0,0,0.1507,0.1461,0.1558,0.1595,0.1599,0.1616,0.1617,0.1618,0.1671,0.1673,0.1674,0.1675,0.1735,0.1736,0.1737,0.172,0,0,0.1741,0.1742,0,0,0,0,0,0,0,0,0.1504,0.151,0.1589,0.1593,0.1597,0.164,0.1605,0.1653,0.1671,0.1642,0.1674,0.1676,0.1704,0.1708,0.1713,0.1723,0.1725,0.1741,0.1742,0.1743,0.1743,0,0,0,0,0,0,0,0.1501,0.1508,0.1579,0.159,0.1595,0.1597,0.1606,0.1614,0.1664,0.1645,0.1649,0.1658,0.1706,0.1712,0.1715,0.1726,0.1741,0.1742,0.1743,0.1744,0.1832,0.1833,0,0,0,0,0,0,0.1498,0.1505,0.1578,0.1581,0.1555,0.1598,0.1607,0.1623,0.1664,0.1672,0.1657,0.1661,0.1709,0.1714,0.1718,0.1796,0.1743,0.1744,0.1744,0.183,0.1832,0.1834,0,0,0,0,0,0,0.1496,0.1504,0.1575,0.1545,0.1555,0.1599,0.1616,0.1624,0.1666,0.1674,0.1682,0.1696,0.171,0.1716,0.176,0.1795,0.1744,0.1745,0.1828,0.1831,0.1833,0.189,0,0,0,0,0,0,0.1493,0.1503,0.1528,0.1545,0.1557,0.1609,0.1615,0.1624,0.1668,0.1674,0.1708,0.1713,0.1712,0.1758,0.1761,0.1796,0.1746,0.1826,0.1829,0.1832,0.1886,0.1894,0.1901,0,0,0,0,0,0.1489,0.1513,0.1529,0.1539,0.1585,0.161,0.1617,0.165,0.1669,0.1692,0.172,0.1714,0.178,0.1761,0.1764,0.1799,0.1825,0.1829,0.1832,0.1883,0.1892,0.19,0,0,0,0,0,0,0.1482,0.1522,0.154,0.1576,0.1603,0.1621,0.165,0.1668,0.1707,0.1725,0.1731,0.1738,0.179,0.1786,0.1765,0.1834,0.1802,0.1807,0.184,0.1849,0.1856,0.1856,0.1747,0,0,0,0,0,0.1492,0.1527,0.1554,0.1588,0.1605,0.1633,0.1655,0.1677,0.1706,0.1726,0.1749,0.1776,0.1799,0.182,0.1836,0.1871,0.1866,0.1898,0.1905,0.1911,0.1914,0.1933,0.1942,0.1846,0.1846,0.1845,0,0,0.1499,0.1527,0.1548,0.159,0.1617,0.1643,0.1651,0.1694,0.1725,0.1724,0.1786,0.1803,0.1814,0.1858,0.1881,0.1865,0.194,0.1916,0.1921,0.192,0.1938,0.1947,0.1955,0.1848,0.1848,0.1847,0,0,0.1517,0.1557,0.1588,0.1614,0.1661,0.1676,0.1696,0.1734,0.1767,0.1815,0.1827,0.1868,0.1903,0.192,0.1929,0.1986,0.1976,0.1999,0.2039,0.2058,0.2066,0.2072,0.2089,0.2097,0.2005,0.2005,0.2005,0,0.1526,0.1568,0.16,0.1631,0.1659,0.1694,0.1725,0.1756,0.1807,0.1834,0.1846,0.1914,0.193,0.1974,0.2002,0.2003,0.2012,0.2003,0.2067,0.2073,0.2079,0.2094,0.2102,0.2008,0.2008,0.2007,0.2007,0,0.1554,0.1599,0.162,0.1672,0.1704,0.1741,0.1781,0.1824,0.1866,0.1892,0.196,0.1984,0.2023,0.204,0.2042,0.2097,0.209,0.2071,0.2041,0.2092,0.2105,0.2112,0.2013,0.2011,0.201,0.201,0,0,0.154,0.1624,0.1635,0.1667,0.1733,0.1756,0.1816,0.1869,0.1914,0.1967,0.2021,0.2072,0.2093,0.2106,0.2119,0.2144,0.2201,0.2136,0.2135,0.2147,0.2251,0.2144,0.2141,0.2197,0.2199,0.22,0.2246,0,0.1554,0.1617,0.1658,0.1718,0.1751,0.1804,0.1853,0.1909,0.1963,0.2024,0.2062,0.2119,0.2116,0.2152,0.2175,0.2198,0.2222,0.2191,0.2204,0.2204,0.2099,0.2146,0.2204,0.2251,0.2253,0.2254,0.2255,0,0.1558,0.1605,0.1669,0.1746,0.1767,0.1811,0.1897,0.1946,0.203,0.2078,0.2136,0.2168,0.2229,0.2214,0.2269,0.2253,0.2261,0.2268,0.2269,0.2151,0.211,0.2188,0.2267,0.2266,0.2265,0.2264,0.2263,0,0.1518,0.1605,0.166,0.1688,0.178,0.1827,0.1882,0.1969,0.2015,0.2122,0.2167,0.2231,0.2281,0.2299,0.2327,0.2307,0.2376,0.2342,0.2248,0.2241,0.2297,0.2289,0.2371,0.2371,0.2371,0.2371,0.2371,0,0.1498,0.1542,0.1654,0.1681,0.1746,0.1822,0.1898,0.1964,0.2059,0.2108,0.2196,0.2237,0.2307,0.235,0.2353,0.2328,0.2397,0.2262,0.2246,0.2322,0.2316,0.2302,0.2294,0.2373,0.2372,0.2372,0.2372,0,0.1436,0.1512,0.1575,0.1691,0.1729,0.1778,0.1894,0.1939,0.205,0.2118,0.2156,0.2263,0.2323,0.2373,0.242,0.2353,0.2346,0.2319,0.2417,0.2405,0.2189,0.2183,0.2202,0.2199,0.2196,0.2193,0.2191,0,0.1406,0.1438,0.1567,0.1606,0.1665,0.1751,0.1802,0.1921,0.1964,0.2109,0.2123,0.2235,0.2291,0.2265,0.2337,0.2341,0.2314,0.2291,0.2215,0.2189,0.2173,0.2171,0.2169,0.2187,0.2186,0.2185,0.2185,0,0.1345,0.1408,0.1462,0.1547,0.1614,0.1669,0.1755,0.1769,0.1895,0.201,0.2039,0.2073,0.2144,0.2182,0.2217,0.221,0.2291,0.226,0.2264,0.2193,0.2171,0.2157,0.2159,0.2175,0.2176,0.2177,0.2178,0,0.1301,0.1324,0.1409,0.1466,0.1542,0.1563,0.162,0.1667,0.1719,0.1868,0.1877,0.2,0.2115,0.2117,0.2144,0.2142,0.2098,0.2011,0.2027,0.2039,0.1967,0.1914,0.183,0,0,0,0,0,0.1247,0.1265,0.1318,0.1372,0.144,0.1485,0.1574,0.163,0.1745,0.1716,0.1787,0.1843,0.189,0.1962,0.1927,0.2086,0.2116,0.2037,0.2025,0.212,0.2131,0.2063,0,0,0,0,0,0,0.1212,0.1264,0.1284,0.1278,0.1296,0.1355,0.1406,0.1486,0.1475,0.1601,0.1636,0.1739,0.1817,0.1892,0.1894,0.1916,0.1872,0.2121,0.2117,0.2113,0.2124,0.2133,0.2067,0,0,0,0,0]},{"header":{"parameterUnit":"m.s-1","parameterCategory":2,"la1":30.2991,"la2":30.254,"lo1":-89.0895,"lo2":-89.0444,"dy":0.0017,"dx":0.0017,"nx":28,"ny":28,"refTime":"2023-10-01T09:00:00:Z","depth":"4","parameterNumber":3,"parameterNumberName":"V-component_of_CURRENTS"},"data":[0,0,0,0,0,0,0,0,0,0,0,0,0,0,0,0,0,0,0,0,0,0,0,0,0,0,0,0,0,0,0,0,0,0,0,0,0,0,0,0,0,0,0,0,0,0,0,0,0,0,0,0,0,0,0,0,0,0,0.0017,0.0017,0,-0.0035,-0.0036,-0.0036,-0.007,-0.007,-0.007,-0.007,-0.0131,-0.0133,-0.0134,0,0,0,0,0,0,0,0,0,0,0,0,0,0.0078,0.0077,0.0017,0.0017,0.0016,-0.0035,-0.0036,-0.0036,-0.007,-0.007,-0.007,-0.0071,-0.0131,-0.0132,-0.0134,0,0,0,0,0,0,0,0,0,0,0,0,0,0.0041,0.0077,0.0018,-0.0007,-0.001,-0.0035,-0.0036,-0.0036,-0.007,-0.007,-0.007,-0.0071,-0.013,-0.0132,-0.0134,-0.014,0,0,-0.0141,-0.0142,0,0,0,0,0,0,0,0,0.0044,0.0039,-0.0003,-0.0005,-0.0008,-0.0046,-0.0037,-0.0072,-0.007,-0.0047,-0.007,-0.0071,-0.0104,-0.0108,-0.0116,-0.0143,-0.0146,-0.0141,-0.0142,-0.0143,-0.0144,0,0,0,0,0,0,0,0.0046,0.0041,-0.0003,-0.0003,-0.0007,-0.0019,-0.0025,-0.0043,-0.0072,-0.0049,-0.0051,-0.0057,-0.0105,-0.0114,-0.0118,-0.0147,-0.0141,-0.0143,-0.0144,-0.0145,-0.0189,-0.0189,0,0,0,0,0,0,0.0053,0.0044,-0.0001,-0.0005,0.0017,-0.002,-0.0026,-0.0034,-0.0072,-0.0078,-0.0057,-0.0059,-0.011,-0.0116,-0.012,-0.0133,-0.0143,-0.0145,-0.0146,-0.0189,-0.0189,-0.0189,0,0,0,0,0,0,0.0054,0.0049,0.0001,0.0018,0.0011,-0.0021,-0.0029,-0.0034,-0.0047,-0.0079,-0.0085,-0.0064,-0.0111,-0.0117,-0.0139,-0.0136,-0.0146,-0.0148,-0.0189,-0.0189,-0.0189,-0.0157,0,0,0,0,0,0,0.0056,0.005,0.0048,0.0019,0.001,-0.0012,-0.0029,-0.0035,-0.005,-0.0053,-0.0086,-0.0092,-0.0112,-0.0136,-0.0141,-0.0139,-0.015,-0.0189,-0.0189,-0.0189,-0.0158,-0.0156,-0.0154,0,0,0,0,0,0.0059,0.0058,0.0048,0.0043,0.0008,-0.0012,-0.0017,-0.0041,-0.005,-0.0053,-0.0077,-0.0091,-0.0139,-0.0138,-0.0144,-0.0142,-0.019,-0.0189,-0.0189,-0.0159,-0.0156,-0.0154,0,0,0,0,0,0,0.0084,0.0053,0.0042,0.0032,0.0012,-0.0018,-0.0023,-0.0039,-0.0061,-0.0063,-0.0093,-0.01,-0.0119,-0.0134,-0.0132,-0.0154,-0.0165,-0.0166,-0.0141,-0.0138,-0.0136,-0.0119,-0.0151,0,0,0,0,0,0.0089,0.0079,0.005,0.0043,0.0034,0.0006,-0.0005,-0.0021,-0.0044,-0.0054,-0.0078,-0.0101,-0.0122,-0.0133,-0.0155,-0.0166,-0.0175,-0.0168,-0.0166,-0.0164,-0.0154,-0.0164,-0.0161,-0.0188,-0.0188,-0.0188,0,0,0.0097,0.0079,0.0074,0.0048,0.0031,0.0023,-0.0001,-0.0016,-0.0021,-0.0057,-0.007,-0.0097,-0.0125,-0.014,-0.0149,-0.0152,-0.0163,-0.0164,-0.0162,-0.0153,-0.0163,-0.016,-0.0158,-0.0188,-0.0188,-0.0188,0,0,0.0111,0.0093,0.009,0.0076,0.0052,0.0037,0.0034,0.0004,-0.0009,-0.0027,-0.0053,-0.0076,-0.0108,-0.0125,-0.0138,-0.0136,-0.0153,-0.0144,-0.0117,-0.0126,-0.0124,-0.0122,-0.0137,-0.0136,-0.014,-0.014,-0.014,0,0.0123,0.0114,0.0088,0.0083,0.0078,0.0045,0.0047,0.003,-0.0003,-0.0009,-0.0027,-0.0071,-0.0099,-0.0112,-0.0114,-0.013,-0.0139,-0.0125,-0.0123,-0.0121,-0.0119,-0.0135,-0.0135,-0.0138,-0.0139,-0.0139,-0.0139,0,0.0131,0.0127,0.0126,0.0111,0.0103,0.0099,0.0075,0.0064,0.0045,0.0026,0.0005,-0.0035,-0.0059,-0.0074,-0.0095,-0.0097,-0.0109,-0.0121,-0.0126,-0.0114,-0.0132,-0.0132,-0.0136,-0.0137,-0.0137,-0.0138,0,0,0.0154,0.0136,0.0137,0.0141,0.0119,0.0117,0.0111,0.0099,0.0102,0.0064,0.0065,0.0018,-0.0004,-0.002,-0.0051,-0.0061,-0.0068,-0.0082,-0.0084,-0.0092,-0.009,-0.0116,-0.012,-0.0077,-0.0077,-0.0077,-0.0109,0,0.017,0.0175,0.0161,0.0175,0.0177,0.0157,0.0158,0.0144,0.0126,0.0118,0.0076,0.006,0.0017,0.0007,-0.0012,-0.0052,-0.0067,-0.0059,-0.0105,-0.0106,-0.0127,-0.012,-0.0076,-0.0109,-0.0109,-0.011,-0.011,0,0.0184,0.0186,0.0202,0.021,0.0211,0.0215,0.0222,0.0219,0.0199,0.0186,0.0161,0.0125,0.0095,0.0059,0.0001,0.0009,-0.0035,-0.0068,-0.0071,-0.0103,-0.0133,-0.0124,-0.0111,-0.011,-0.011,-0.011,-0.011,0,0.0213,0.0218,0.0237,0.0238,0.0238,0.0247,0.0249,0.0239,0.0252,0.0232,0.0235,0.0186,0.0169,0.0109,0.0023,0.0017,-0.0038,-0.0056,-0.0122,-0.0125,-0.0106,-0.0107,-0.009,-0.009,-0.009,-0.009,-0.009,0,0.0234,0.025,0.0253,0.0262,0.0293,0.0281,0.0312,0.0306,0.0312,0.0338,0.0274,0.0277,0.0183,0.0129,0.0049,-0.004,-0.0022,-0.0113,-0.0132,-0.0093,-0.0093,-0.0106,-0.0108,-0.0091,-0.0091,-0.0091,-0.0091,0,0.0259,0.026,0.0285,0.0296,0.0307,0.0328,0.036,0.0381,0.0377,0.041,0.0407,0.0355,0.0279,0.0172,0.0076,-0.0001,-0.0087,-0.0124,-0.0075,-0.0091,-0.0174,-0.0173,-0.0193,-0.0194,-0.0195,-0.0196,-0.0197,0,0.027,0.0284,0.0316,0.0339,0.0346,0.0377,0.0403,0.0415,0.0442,0.0458,0.0475,0.0414,0.0359,0.0209,0.0085,-0.0076,-0.0105,-0.0152,-0.0165,-0.0166,-0.0183,-0.0181,-0.0179,-0.0198,-0.0199,-0.0199,-0.0199,0,0.0292,0.0305,0.0326,0.0374,0.0407,0.0451,0.0485,0.0515,0.0537,0.0537,0.054,0.0452,0.0362,0.0221,0.0088,-0.0028,-0.0122,-0.0162,-0.0161,-0.0174,-0.0173,-0.0187,-0.0185,-0.0202,-0.0202,-0.0202,-0.0201,0,0.0311,0.033,0.0361,0.0404,0.0455,0.0507,0.0523,0.0553,0.0582,0.0594,0.0598,0.0494,0.0438,0.0246,0.0128,0.0002,-0.0034,-0.0074,-0.0078,-0.0076,-0.0046,-0.0028,-0.0022,0,0,0,0,0,0.0325,0.0347,0.0388,0.0435,0.0487,0.0518,0.0573,0.0585,0.0608,0.0622,0.0615,0.0529,0.0354,0.0274,0.0145,0.0089,-0.0072,-0.0069,-0.0123,-0.0221,-0.0217,-0.0205,0,0,0,0,0,0,0.0333,0.037,0.0388,0.0455,0.0491,0.0552,0.0591,0.0609,0.061,0.0618,0.0526,0.0488,0.0311,0.043,0.0141,0.0101,0.0047,-0.0153,-0.0156,-0.0223,-0.0219,-0.0216,-0.0203,0,0,0,0,0]}]]